SL-8 R/B, 3048

Orbit data source: Space-Track

SL-8 R/B, 3048 is space debris in LEO originally from a launch on Thu, 23 Nov 1967 UTC launched from the Plesetsk Missile And Space Complex (PKMTR). Debris objects in space refer to the collection of defunct objects orbiting the Earth. Examples of debris include non-operational satellites, rocket bodies, and fragments generated from explosions, collisions, or faulty payload assembly.

Loading next visibility...
Identifier
3048, 1967-116B
Orbit
LEO
Country
Flag of CISCIS
Related business
Manufacturer
Yuzhnoe
Mission
Spacecraft
Bus & Motor
S3, Unknown motor
Mass
1,434 kg wet, 1,434 kg dry
Launch date (UTC)
1967-11-23 (58 years ago)
Launch vehicle
Unknown
Launch site
Plesetsk Missile And Space Complex (PKMTR)
Object type
Payload
Rocket body
Debris
Shape & HBR
Unknown
Radar Cross Section
Large (>1 m²)

Expand to show TLE details & history
Last TLE update: 3 hours ago

TLE from 3 hours ago
0 SL-8 R/B
1  3048U 67116B   26129.86978117  .00000329  00000-0  69523-4 0  9996
2  3048  74.0059 282.9917 0006205  40.8753  71.7078 14.63374470100437
Epoch: 2026-05-09T20:52Z
TLE epoch observation values (Epoch: 2026-05-09T20:52:29.093Z)
Latitude
62.6205°
Longitude
-111.2104°
Altitude
691.32 km
Speed
7.517 km/s
True Right ascension
04h 38m 22s
True Declination
62° 28' 42"
Sunlit
Object was in daylight at epoch
Visualization orbit readout
Latitude
Unknown
Longitude
Unknown
Altitude
Unknown
Speed
Unknown
Apparent Right ascension
Unknown
Apparent Declination
Unknown
Sunlit
N/A
Visualization observer readout
Local Sidereal Time
08:11:38
Azimuth
Unknown
Elevation
Unknown
Doppler factor
Unknown
Orbital elements
Apogee altitude
684.275 km
Perigee altitude
675.516 km
Semi-major axis
7,058.032 km
Eccentricity
0.00062
Inclination
74.0059°
RAAN
282.9917°
Arg. of periapsis
40.8753°
True anomaly
71.77533°
Mean anomaly
71.7078°
Eccentric anomaly
71.74156°
Mean motion
3.66031 °/min
Orbital period
98.35 mins
BSTAR
0.000069523
Loading maneuver chart data...
Computing Atmospheric mass density...
Loading historical data...
Loading historical data...
Loading historical data...
Loading historical data...
Loading historical data...
Loading historical data...
Loading historical data...

Documentation

Showing up to 5 results
|